Location: Montclair
(37.8322°N, 122.2092°W)
Time: 15:26:26
(UTC+00:00)

CENTAUR R/B - Pass Details

Date: 08 September 2024
Orbit: 661 x 1523 km, 63.4° (Epoch: 07 October)

Event Time Altitude Azimuth Distance (km) Brightness Sun altitude
Exits shadow 12:51:51 13° 238° (WSW) 2,143 3.7 -11.2°
Maximum altitude 12:56:28 48° 310° (NW) 1,167 2.7 -10.3°
Drops below altitude 10° 13:02:56 10° 24° (NNE) 2,899 5.6 -9.1°
Sets 13:06:01 0° 30° (NNE) 4,005 6.4 -8.5°
